Regional Weather Roundup
Issued by NWS Grand Forks, ND

Home | Current Version | Previous Version | Text Only | Print | Product List | Glossary Off
Versions: 1 2 3 4 5 6 7 8 9 10 11 12 13 14 15 16 17 18 19 20 21 22 23 24 25 26 27 28 29 30 31 32 33 34 35 36 37 38 39 40 41 42 43 44 45 46 47 48 49 50

343
ASUS43 KFGF 080010
RWRFGF
PRAIRIE TO PINES  WEATHER ROUNDUP
NATIONAL WEATHER SERVICE EASTERN NORTH DAKOTA/GRAND FORKS ND
600 PM CST SUN FEB 07 2016

 **SATELLITE DATA USED TO AUGMENT SKY COVER AT AUTOMATED STATIONS**
 *****  WEATHER ACROSS EASTERN NORTH DAKOTA  *****

CITY           SKY/WX    TMP DP  RH WIND       PRES   REMARKS
GRAND FORKS    SNOW      16  10  77 N31G41    29.95R VSB 1/4 WCI  -4
6HR MIN TEMP:  16; 6HR MAX TEMP:  26; 6HR PCP: TRACE;

GRAND FRKS AFB FLURRIES  16  10  79 N17G30    29.96R WCI   0
GRAND FRKS NWS   N/A     14 N/A N/A N31         N/A  WCI  -7
DEVILS LAKE    FLURRIES  19  13  77 NW31G44   29.98R WCI   0
6HR MIN TEMP:  19; 6HR MAX TEMP:  23; 6HR PCP: TRACE;

FARGO          LGT SNOW  19  13  77 N30G41    29.93R WCI   0
WAHPETON ARPT  CLOUDY    21  16  79 N21G29    29.91R WCI   6
$$

 ***** WEATHER ACROSS CENTRAL AND WESTERN NORTH DAKOTA  *****

CITY           SKY/WX    TMP DP  RH WIND       PRES   REMARKS
BISMARCK       PTCLDY    36  17  46 NW33G45   30.07R
6HR MIN TEMP:  33; 6HR MAX TEMP:  38; 6HR PCP: TRACE;

MINOT          CLOUDY    33  18  53 NW25G36   30.09R WCI  20
6HR MIN TEMP:  28; 6HR MAX TEMP:  35; 6HR PCP: TRACE;

JAMESTOWN      LGT SNOW  22  16  78 NW30G46   29.95R WCI   4
6HR MIN TEMP:  21; 6HR MAX TEMP:  27; 6HR PCP: TRACE;

MINOT AFB      MOCLDY    30  19  65 NW32G39   30.08R WCI  14
GARRISON         N/A     32  19  58 NW29G40   30.08R WCI  18
WILLISTON      CLEAR     34  20  56 NW20G36   30.23R WCI  23
6HR MIN TEMP:  33; 6HR MAX TEMP:  37;

DICKINSON      PTCLDY    30  14  51 NW28G45   30.16R WCI  15
6HR MIN TEMP:  30; 6HR MAX TEMP:  35;

HETTINGER      MOCLDY    33  13  43 NW33G45   30.18R WCI  18
6HR MIN TEMP:  33; 6HR MAX TEMP:  38;

$$

 *****  OTHER AIRPORT OBSERVATIONS IN OUR AREA  *****

CITY           SKY/WX    TMP DP  RH WIND       PRES   REMARKS
WALHALLA       LGT SNOW  14  10  85 N31G40    30.00R WCI  -7
GRAFTON AIRPOR LGT SNOW  14  10  85 NW25G37   29.99R WCI  -5
VALLEY CITY AR LGT SNOW  19  18  93 N31G40    29.96R WCI   0
CANDO          NOT AVBL
CAVALIER APRT  HVY SNOW  14   9  79 N28G43    29.99R VSB 1/4 WCI  -6
GWINNER        CLOUDY    25  16  68 N29G38    29.94R WCI   8
SHEYENNE NWR     N/A     22  13  67 N23       29.95S WCI   6
ROLLA          FLURRIES  18  14  86 N32G40    29.99R WCI  -3
 ***** THE ABOVE OBSERVATIONS ARE NON NWS ARE NOT QUALITY
       CONTROLLED AND MAY MIS-REPORT RAIN FOR SNOW...
$$

  *****  WEATHER ACROSS NORTHERN MINNESOTA  *****

CITY           SKY/WX    TMP DP  RH WIND       PRES   REMARKS
FLAG ISLAND    LGT SNOW   9   5  85 NW25G32   29.78R WCI -13
WARROAD        LGT SNOW   9   3  78 NW24G31   29.82R VSB 3/4 WCI -12
ROSEAU         LGT SNOW  10   5  79 NW20G28   29.84R WCI  -8
HALLOCK        SNOW      12   9  85 N30G41    29.93R VSB 1/2 WCI  -9
THF RVR FALLS  NOT AVBL
BAUDETTE       LGT SNOW  10   4  76 NW26G38   29.75R WCI -11
6HR MIN TEMP:  11; 6HR MAX TEMP:  27; 6HR PCP: TRACE;

WASKISH        LGT SNOW  14  10  85 W14G21    29.74R WCI  -1
CROOKSTON      HVY SNOW  12  10  92 N30G41    29.93R VSB 1/4 WCI  -9
STEPHEN NDAWN    N/A     10   9  92 N26         N/A  WCI -11
GREENBUSH NDAW   N/A     10   7  85 N18         N/A  WCI  -8
$$
  *****  WEATHER ACROSS CENTRAL AND WEST MINNESOTA  *****

CITY           SKY/WX    TMP DP  RH WIND       PRES   REMARKS
FOSSTON        LGT SNOW   9   7  92 NW24G32   29.84R WCI -12
BEMIDJI        LGT SNOW  12   9  85 NW23G33   29.75R VSB 1   WCI  -7
PARK RAPIDS    LGT SNOW  13   7  77 NW21G37   29.75R VSB 3/4 WCI  -5
6HR MIN TEMP:  14; 6HR MAX TEMP:  34; 6HR PCP: TRACE;

ELBOW LAKE     CLOUDY    19  13  76 NW28G40   29.85R HAZE    WCI   1
WADENA         LGT SNOW  14   9  79 NW26G40   29.76R WCI  -6
DETROIT LAKES  LGT SNOW  14  12  92 NW32G40   29.84R VSB 3/4 WCI  -7
MOORHEAD       MIX PCPN  18  14  86 N23G30    29.92R WCI   0
FERGUS FALLS   LGT SNOW  19  12  73 N29G40    29.89R WCI   1
MORRIS MN      LGT SNOW  23  18  80 N29G36    29.83R WCI   6
STAPLES        LGT SNOW  16  10  79 NW22G32   29.75R WCI  -2
$$
  *****  WEATHER ELSEWHERE ACROSS MINNESOTA  *****

CITY           SKY/WX    TMP DP  RH WIND       PRES   REMARKS
DULUTH         FLURRIES  28  24  85 NW15G23   29.53R WCI  16
6HR MIN TEMP:  28; 6HR MAX TEMP:  34; 6HR PCP:  0.04;

INTRNTL FALLS  MIX PCPN  22  18  85 NW18      29.64R FOG     WCI   7
6HR MIN TEMP:  22; 6HR MAX TEMP:  31; 6HR PCP:  0.01;

ELY            LGT SNOW  30  30 100 NW9       29.50R VSB 1   WCI  22
CLOQUET        FLURRIES  27  21  80 W16G28    29.56R WCI  14
WHEATON        LGT SNOW  25  21  86 NW24G31   29.91R WCI   9
BRAINERD       LGT SNOW  18  13  80 NW16G28   29.71R VSB 1   WCI   3
6HR MIN TEMP:  19; 6HR MAX TEMP:  35; 6HR PCP: TRACE;

HIBBING        MIX PCPN  22  20  92 NW23      29.57R FOG     WCI   6
6HR MIN TEMP:  22; 6HR MAX TEMP:  33; 6HR PCP: TRACE;

ALEXANDRIA     LGT SNOW  20  13  74 NW28G37   29.79R WCI   2
6HR MIN TEMP:  20; 6HR MAX TEMP:  35; 6HR PCP: TRACE;

SAINT CLOUD    LGT SNOW  24  19  81 NW22G30   29.73R WCI   9
6HR MIN TEMP:  24; 6HR MAX TEMP:  38; 6HR PCP: TRACE;

MINNEAPOLIS    CLOUDY    33  22  63 NW17G32   29.68R WCI  22
6HR MIN TEMP:  33; 6HR MAX TEMP:  40; 6HR PCP: TRACE;

$$

  *****  WEATHER ACROSS SOUTH DAKOTA  *****

CITY           SKY/WX    TMP DP  RH WIND       PRES   REMARKS
SIOUX FALLS    CLOUDY    29  20  69 NW29G39   29.92R WCI  14
6HR MIN TEMP:  29; 6HR MAX TEMP:  36; 6HR PCP: TRACE;

BROOKINGS      FLURRIES  25  19  78 NW29G37   29.87R WCI   8
WATERTOWN      FLURRIES  23  15  71 N29G37    29.89R WCI   6
6HR MIN TEMP:  23; 6HR MAX TEMP:  34; 6HR PCP: TRACE;

HURON          LGT SNOW  29  27  92 N23G32    29.98R FOG     WCI  15
6HR MIN TEMP:  29; 6HR MAX TEMP:  35; 6HR PCP: TRACE;

SISSETON         N/A     23  19  85 N30G39    29.90R WCI   5
ABERDEEN       CLOUDY    30  18  60 NW40G51   29.97R WCI  13
6HR MIN TEMP:  28; 6HR MAX TEMP:  36; 6HR PCP: TRACE;

MITCHELL       FLURRIES  33  27  78 NW31G41   30.00R WCI  19
PIERRE         PTCLDY    36  15  42 NW43G56   30.07R
6HR MIN TEMP:  36; 6HR MAX TEMP:  40; 6HR PCP: TRACE;

MOBRIDGE       PTCLDY    36  16  44 NW31G56   30.03R
RAPID CITY     CLEAR     35   6  29 NW30G58   30.20R WCI  22
6HR MIN TEMP:  35; 6HR MAX TEMP:  40;

$$

  *****  SOME WEATHER IN NEARBY STATES *****

CITY           SKY/WX    TMP DP  RH WIND       PRES   REMARKS
GLASGOW MT     CLEAR     34  20  56 NW16      30.36R WCI  24
6HR MIN TEMP:  32; 6HR MAX TEMP:  36;

GREAT FALLS MT CLOUDY    41  15  35 NW6       30.41S
6HR MIN TEMP:  37; 6HR MAX TEMP:  45;

CHEYENNE WY    CLOUDY    26  15  63 N18G28    30.27R WCI  13
6HR MIN TEMP:  26; 6HR MAX TEMP:  31;

SCOTTSBLUFF NE CLOUDY    32  16  51 NW21G30   30.32R WCI  20
6HR MIN TEMP:  32; 6HR MAX TEMP:  35;

OMAHA NE       FLURRIES  36  30  79 W25G32    29.96R
6HR MIN TEMP:  36; 6HR MAX TEMP:  45; 6HR PCP: TRACE;

DES MOINES IA  FLURRIES  35  30  82 W14G25    29.87R
6HR MIN TEMP:  35; 6HR MAX TEMP:  45; 6HR PCP: TRACE;

DAVENPORT IA   MOCLDY    37  28  70 W13       29.81S
6HR MIN TEMP:  36; 6HR MAX TEMP:  45;

CHICAGO IL     PTCLDY    40  30  67 W12G21    29.75R
6HR MIN TEMP:  40; 6HR MAX TEMP:  43;

EAU CLAIRE WI  CLOUDY    37  27  67 W9        29.60R
6HR MIN TEMP:  37; 6HR MAX TEMP:  40;

LA CROSSE WI   CLOUDY    38  27  64 W13       29.67R
6HR MIN TEMP:  38; 6HR MAX TEMP:  41;

$$

  *****  SOME NATIONAL WEATHER *****

CITY           SKY/WX    TMP DP  RH WIND       PRES   REMARKS
LA GUARDIA NY  CLOUDY    40  31  70 NE12      30.02S
6HR MIN TEMP:  40; 6HR MAX TEMP:  46;

RALEIGH NC     CLOUDY    42  23  46 N8        29.88S
6HR MIN TEMP:  41; 6HR MAX TEMP:  44;

ATLANTA GA     PTCLDY    49  21  33 NW7       29.99R
6HR MIN TEMP:  49; 6HR MAX TEMP:  56;

NEW ORLEANS LA CLEAR     54  24  31 S8        30.16R
6HR MIN TEMP:  54; 6HR MAX TEMP:  60;

OKLAHOMA CITY  PTCLDY    55  25  31 N21G28    30.16R
6HR MIN TEMP:  53; 6HR MAX TEMP:  59;

ALBUQUERQUE NM CLEAR     55  17  22 N12       30.30R
6HR MIN TEMP:  45; 6HR MAX TEMP:  57;

SALT LAKE CITY MOCLDY    36  28  73 N6        30.60R HAZE
6HR MIN TEMP:  34; 6HR MAX TEMP:  41;

LOS ANGELES CA SUNNY     72  39  30 W10       30.08S
6HR MIN TEMP:  72; 6HR MAX TEMP:  82;

BOISE ID       CLEAR    C1F1C2F2C3F3C4F4C5F5C6F6C7F7C8F8C9F9CaFaCbFbCcFcCd!



USA.gov is the U.S. government's official web portal to all federal, state and local government web resources and services.